Regional Weather Roundup
Issued by NWS Albany, NY

Home | Current Version | Previous Version | Graphics & Text | Print | Product List | Glossary On
Versions: 1 2 3 4 5 6 7 8 9 10 11 12 13 14 15 16 17 18 19 20 21 22 23 24 25 26 27
000
ASUS41 KALY 232210
RWRALY

NEW YORK STATE HOURLY WEATHER ROUNDUP
NATIONAL WEATHER SERVICE ALBANY NY
600 PM EDT THU OCT 23 2014

NOTE: "FAIR" INDICATES FEW OR NO CLOUDS BELOW 12,000 FEET WITH NO
SIGNIFICANT WEATHER AND/OR NO OBSTRUCTIONS TO VISIBILITY.

NYZ032-033-038>043-046>054-057>066-NYZ062>081-232300-
EAST


CITY           SKY/WX    TMP DP  RH WIND       PRES   REMARKS
ALBANY         CLOUDY    47  44  90 N7        29.83S
GLENS FALLS    CLOUDY    48  43  82 N9        29.84S
POUGHKEEPSIE   CLOUDY    51  44  77 N16G25    29.77R
MONTGOMERY     CLOUDY    51  47  86 CALM      29.76R
WHITE PLAINS   MOCLDY    49  43  80 NW18G30   29.71R
ISLIP          CLOUDY    53  46  77 NW21G30   29.65R
NEW YORK CITY  MOCLDY    53  46  77 NW22G32   29.71R
CENTRAL PARK   CLOUDY    53  47  79 VRB7      29.75R
$$

NYZ005>009-017-018-044>046-055-056-232300-
CENTRAL


CITY           SKY/WX    TMP DP  RH WIND       PRES   REMARKS
FULTON         CLOUDY    53  43  68 N14G26    29.95S
SYRACUSE       CLOUDY    52  42  69 N17       29.93F
ROME           CLOUDY    47  43  86 N8        29.93R
ELMIRA         CLOUDY    54  42  64 N20G26    29.93R
BINGHAMTON     LGT RAIN  46  42  86 N15       29.88S
MONTICELLO     CLOUDY    46  43  87 N14G20    29.81S
$$

NYZ026>034-041>043-232300-
NORTH


CITY           SKY/WX    TMP DP  RH WIND       PRES   REMARKS
WATERTOWN      CLOUDY    51  42  71 NE16G22   29.97R
FORT DRUM      NOT AVBL
MASSENA        LGT RAIN  47  43  86 NE14G22   30.01R
SARANAC LAKE   CLOUDY    41  39  93 NE7       29.90F
PLATTSBURGH    CLOUDY    44  42  93 N18       29.94S
$$

NYZ001>004-010>016-019>021-232300-
WEST


CITY           SKY/WX    TMP DP  RH WIND       PRES   REMARKS
NIAGARA FALLS  PTCLDY    56  42  59 NW7       30.04S
BUFFALO        PTCLDY    57  40  52 NW10      30.04S
DUNKIRK        CLEAR     54  45  71 W10       30.06S
JAMESTOWN      CLEAR     52  37  58 NW7       30.06S
WELLSVILLE     CLOUDY    53  36  52 N16G28    29.99S
ROCHESTER      CLOUDY    58  41  53 NW9       29.99F
PENN YAN       CLOUDY    54  43  66 N12G25    29.96S
$$

             KEY
       WCI = WIND CHILL INDEX
       VSB = VISIBILITY
       HX  = HEAT INDEX
$$



USA.gov is the U.S. government's official web portal to all federal, state and local government web resources and services.